This is the latest recevied weather packets stored in our database for station/object KC7UNY-13. If no packets are shown the sender has not sent any weather packets the latest 1 day(s).
| Time | Temp. | Humidity | Pressure | Rain* | Wind** | Luminosity | Snow |
|---|---|---|---|---|---|---|---|
| 1778039294 | 21.11° C | 31% | 1012 hPa | 0 mm | 0.45 m/s, 316° | 0 W/m² | - |
| 1778038991 | 21.11° C | 32% | 1011.9 hPa | 0 mm | 0.45 m/s, 15° | 0 W/m² | - |
| 1778038688 | 21.67° C | 31% | 1011.7 hPa | 0 mm | 0.89 m/s, 0° | 0 W/m² | - |
| 1778038385 | 21.67° C | 31% | 1011.6 hPa | 0 mm | 0.89 m/s, 348° | 0 W/m² | - |
| 1778038082 | 21.67° C | 32% | 1011.6 hPa | 0 mm | 0 m/s | 0 W/m² | - |
| 1778037779 | 21.67° C | 31% | 1011.5 hPa | 0 mm | 0.45 m/s, 4° | 0 W/m² | - |
| 1778037475 | 21.67° C | 30% | 1011.6 hPa | 0 mm | 0.89 m/s, 3° | 0 W/m² | - |
| 1778037173 | 21.67° C | 30% | 1011.4 hPa | 0 mm | 1.79 m/s, 261° | 0 W/m² | - |
| 1778036871 | 22.22° C | 30% | 1011.3 hPa | 0 mm | 1.34 m/s, 325° | 0 W/m² | - |
| 1778036568 | 22.22° C | 30% | 1011.1 hPa | 0 mm | 1.79 m/s, 343° | 0 W/m² | - |
| 1778036265 | 22.22° C | 30% | 1011.3 hPa | 0 mm | 1.34 m/s, 314° | 0 W/m² | - |
| 1778035961 | 22.22° C | 30% | 1011.1 hPa | 0 mm | 0.89 m/s, 0° | 0 W/m² | - |
| 1778035658 | 22.22° C | 30% | 1011.1 hPa | 0 mm | 0.89 m/s, 282° | 0 W/m² | - |
| 1778035355 | 22.22° C | 29% | 1010.9 hPa | 0 mm | 1.34 m/s, 323° | 0 W/m² | - |
| 1778035051 | 22.22° C | 29% | 1010.9 hPa | 0 mm | 1.34 m/s, 7° | 0 W/m² | - |
| 1778034748 | 22.22° C | 29% | 1010.9 hPa | 0 mm | 0.45 m/s, 18° | 0 W/m² | - |
| 1778034445 | 22.78° C | 28% | 1010.6 hPa | 0 mm | 1.34 m/s, 290° | 0 W/m² | - |
| 1778034143 | 22.78° C | 28% | 1010.7 hPa | 0 mm | 1.34 m/s, 257° | 1 W/m² | - |
| 1778033841 | 22.78° C | 28% | 1010.4 hPa | 0 mm | 1.34 m/s, 291° | 1 W/m² | - |
| 1778033538 | 22.78° C | 28% | 1010.4 hPa | 0 mm | 0.89 m/s, 275° | 3 W/m² | - |
| 1778033234 | 22.78° C | 28% | 1010.3 hPa | 0 mm | 1.79 m/s, 319° | 4 W/m² | - |
| 1778032932 | 22.78° C | 29% | 1010.2 hPa | 0 mm | 0.89 m/s, 282° | 7 W/m² | - |
| 1778032629 | 23.33° C | 28% | 1010.1 hPa | 0 mm | 1.34 m/s, 306° | 10 W/m² | - |
| 1778032327 | 23.33° C | 28% | 1010.1 hPa | 0 mm | 0.89 m/s, 322° | 13 W/m² | - |
| 1778032024 | 23.33° C | 28% | 1010.2 hPa | 0 mm | 0.89 m/s, 328° | 16 W/m² | - |
* Rain latest hour (hover to see other rain measurements)
** Current wind speed in m/s (hover to see current wind gust speed)